Hourly Weather Adamovcy

Today, 27 February, Saturday

Time Temperature Precipitation Wind Pressure Humidity
00:00 +1°C° 0 mm 6 mps 745 mmHg 88%
01:00 +1°C° 0 mm 6 mps 745 mmHg 89%
02:00 +1°C° 0 mm 5 mps 745 mmHg 92%
03:00 0°C° 0 mm 5 mps 745 mmHg 92%
04:00 0°C° 0 mm 5 mps 745 mmHg 92%
05:00 0°C° 0 mm 5 mps 745 mmHg 92%
06:00 0°C° 0.2 mm 5 mps 745 mmHg 93%
07:00 0°C° 0.2 mm 5 mps 746 mmHg 93%
08:00 0°C° 0 mm 5 mps 747 mmHg 95%
09:00 0°C° 0.1 mm 5 mps 747 mmHg 95%
10:00 -1°C° 0.1 mm 6 mps 748 mmHg 95%
11:00 -2°C° 0.1 mm 6 mps 748 mmHg 95%
12:00 -1°C° 0 mm 6 mps 749 mmHg 91%
13:00 -1°C° 0 mm 6 mps 749 mmHg 88%
14:00 -1°C° 0 mm 7 mps 750 mmHg 84%
15:00 -2°C° 0 mm 6 mps 750 mmHg 86%
16:00 -2°C° 0 mm 6 mps 750 mmHg 88%
17:00 -1°C° 0 mm 5 mps 751 mmHg 90%
18:00 -1°C° 0 mm 5 mps 751 mmHg 89%
19:00 -1°C° 0 mm 5 mps 752 mmHg 89%
20:00 -1°C° 0 mm 4 mps 752 mmHg 88%
21:00 -1°C° 0 mm 4 mps 753 mmHg 89%
22:00 -1°C° 0 mm 4 mps 753 mmHg 91%
23:00 -2°C° 0 mm 4 mps 753 mmHg 93%

Tomorrow, 28 February, Sunday

Time Temperature Precipitation Wind Pressure Humidity
00:00 -2°C° 0 mm 4 mps 753 mmHg 92%
01:00 -3°C° 0 mm 4 mps 753 mmHg 92%
02:00 -3°C° 0 mm 4 mps 753 mmHg 92%
03:00 -3°C° 0 mm 4 mps 753 mmHg 90%
04:00 -3°C° 0 mm 4 mps 753 mmHg 89%
05:00 -3°C° 0 mm 4 mps 753 mmHg 88%
06:00 -3°C° 0.1 mm 4 mps 752 mmHg 91%
07:00 -2°C° 0.1 mm 5 mps 752 mmHg 93%
08:00 -2°C° 0.1 mm 5 mps 751 mmHg 95%
09:00 -1°C° 0.3 mm 5 mps 751 mmHg 91%
10:00 -1°C° 0.3 mm 6 mps 751 mmHg 87%
11:00 +1°C° 0.3 mm 6 mps 750 mmHg 83%
12:00 +1°C° 0.1 mm 6 mps 750 mmHg 87%
13:00 +1°C° 0.1 mm 6 mps 750 mmHg 91%
14:00 0°C° 0.1 mm 5 mps 750 mmHg 95%
15:00 0°C° 0.1 mm 5 mps 750 mmHg 93%
16:00 0°C° 0.1 mm 5 mps 750 mmHg 92%
17:00 +1°C° 0.1 mm 4 mps 750 mmHg 90%
18:00 0°C° 0 mm 4 mps 751 mmHg 92%
19:00 0°C° 0 mm 4 mps 752 mmHg 95%
20:00 +1°C° 0 mm 3 mps 753 mmHg 97%
21:00 +1°C° 0 mm 3 mps 753 mmHg 97%
22:00 +1°C° 0 mm 3 mps 753 mmHg 96%
23:00 +1°C° 0 mm 2 mps 754 mmHg 96%

Day after tomorrow, 1 March, Monday

Time Temperature Precipitation Wind Pressure Humidity
00:00 +1°C° 0 mm 2 mps 754 mmHg 96%
01:00 +1°C° 0 mm 2 mps 755 mmHg 96%
02:00 +1°C° 0 mm 2 mps 756 mmHg 96%
03:00 -1°C° 0 mm 2 mps 755 mmHg 96%
04:00 -1°C° 0 mm 2 mps 755 mmHg 96%
05:00 -2°C° 0 mm 2 mps 755 mmHg 96%
06:00 -2°C° 0 mm 2 mps 756 mmHg 96%
07:00 -2°C° 0 mm 2 mps 756 mmHg 96%
08:00 -1°C° 0 mm 2 mps 756 mmHg 96%
09:00 0°C° 0 mm 3 mps 756 mmHg 94%
10:00 0°C° 0 mm 3 mps 756 mmHg 92%
11:00 0°C° 0 mm 4 mps 756 mmHg 90%
12:00 0°C° 0 mm 4 mps 756 mmHg 91%
13:00 +1°C° 0 mm 4 mps 756 mmHg 91%
14:00 +1°C° 0 mm 4 mps 756 mmHg 92%
15:00 +1°C° 0 mm 4 mps 756 mmHg 91%
16:00 +1°C° 0 mm 4 mps 755 mmHg 91%
17:00 +1°C° 0 mm 4 mps 755 mmHg 91%
18:00 +1°C° 0 mm 4 mps 754 mmHg 91%
19:00 +1°C° 0 mm 4 mps 754 mmHg 91%
20:00 0°C° 0 mm 5 mps 754 mmHg 92%
21:00 +1°C° 0 mm 5 mps 754 mmHg 91%
22:00 +1°C° 0 mm 6 mps 753 mmHg 89%
23:00 +1°C° 0 mm 6 mps 753 mmHg 88%

2 March, Tuesday

Time Temperature Precipitation Wind Pressure Humidity
00:00 +1°C° 0 mm 6 mps 753 mmHg 89%
01:00 0°C° 0 mm 5 mps 753 mmHg 90%
02:00 0°C° 0 mm 5 mps 753 mmHg 91%
03:00 0°C° 0 mm 5 mps 753 mmHg 91%
04:00 -1°C° 0 mm 5 mps 753 mmHg 92%
05:00 -1°C° 0 mm 5 mps 753 mmHg 92%
06:00 -1°C° 0 mm 5 mps 753 mmHg 91%
07:00 -1°C° 0 mm 5 mps 753 mmHg 89%
08:00 -1°C° 0 mm 5 mps 754 mmHg 88%
09:00 0°C° 0 mm 5 mps 754 mmHg 80%
10:00 +2°C° 0 mm 5 mps 754 mmHg 73%
11:00 +4°C° 0 mm 6 mps 754 mmHg 65%
12:00 +4°C° 0 mm 6 mps 753 mmHg 65%
13:00 +5°C° 0 mm 7 mps 753 mmHg 64%
14:00 +6°C° 0 mm 7 mps 753 mmHg 63%
15:00 +5°C° 0 mm 7 mps 753 mmHg 66%
16:00 +5°C° 0 mm 6 mps 753 mmHg 70%
17:00 +4°C° 0 mm 6 mps 753 mmHg 73%
18:00 +5°C° 0 mm 5 mps 753 mmHg 76%
19:00 +3°C° 0 mm 5 mps 754 mmHg 79%
20:00 +3°C° 0 mm 5 mps 754 mmHg 81%
21:00 +2°C° 0 mm 5 mps 754 mmHg 84%
22:00 +1°C° 0 mm 4 mps 754 mmHg 87%
23:00 0°C° 0 mm 4 mps 754 mmHg 90%

3 March, Wednesday

Time Temperature Precipitation Wind Pressure Humidity
00:00 0°C° 0 mm 4 mps 754 mmHg 90%
01:00 0°C° 0 mm 4 mps 754 mmHg 90%
02:00 -1°C° 0 mm 4 mps 755 mmHg 90%
03:00 0°C° 0 mm 3 mps 755 mmHg 92%
04:00 -1°C° 0 mm 3 mps 755 mmHg 94%
05:00 -1°C° 0 mm 3 mps 755 mmHg 96%
06:00 -1°C° 0 mm 3 mps 755 mmHg 95%
07:00 -1°C° 0 mm 3 mps 755 mmHg 93%
08:00 -1°C° 0 mm 3 mps 756 mmHg 91%
09:00 +1°C° 0 mm 2 mps 756 mmHg 86%
10:00 +1°C° 0 mm 2 mps 756 mmHg 80%
11:00 +2°C° 0 mm 2 mps 756 mmHg 74%
12:00 +3°C° 0 mm 2 mps 756 mmHg 67%
13:00 +4°C° 0 mm 2 mps 756 mmHg 61%
14:00 +5°C° 0 mm 2 mps 756 mmHg 54%
15:00 +5°C° 0 mm 2 mps 755 mmHg 57%
16:00 +4°C° 0 mm 2 mps 755 mmHg 60%
17:00 +4°C° 0 mm 2 mps 754 mmHg 63%
18:00 +3°C° 0 mm 2 mps 754 mmHg 68%
19:00 +2°C° 0 mm 2 mps 754 mmHg 74%
20:00 +1°C° 0 mm 2 mps 754 mmHg 80%
21:00 +1°C° 0 mm 2 mps 753 mmHg 83%
22:00 +1°C° 0 mm 2 mps 753 mmHg 87%
23:00 -1°C° 0 mm 2 mps 753 mmHg 90%

4 March, Thursday

Time Temperature Precipitation Wind Pressure Humidity
00:00 -1°C° 0 mm 2 mps 752 mmHg 91%
01:00 -1°C° 0 mm 3 mps 751 mmHg 93%
02:00 -1°C° 0 mm 3 mps 751 mmHg 94%
03:00 -1°C° 0 mm 3 mps 750 mmHg 94%
04:00 -2°C° 0 mm 4 mps 749 mmHg 94%
05:00 -2°C° 0 mm 4 mps 748 mmHg 94%
06:00 -2°C° 0 mm 4 mps 748 mmHg 93%
07:00 -2°C° 0 mm 5 mps 747 mmHg 92%
08:00 -2°C° 0 mm 5 mps 746 mmHg 91%
09:00 0°C° 0 mm 5 mps 745 mmHg 85%
10:00 +1°C° 0 mm 5 mps 745 mmHg 80%
11:00 +3°C° 0 mm 5 mps 744 mmHg 74%
12:00 +3°C° 0 mm 5 mps 744 mmHg 76%
13:00 +3°C° 0 mm 5 mps 743 mmHg 78%
14:00 +3°C° 0 mm 5 mps 743 mmHg 80%
15:00 +2°C° 0 mm 5 mps 743 mmHg 81%
16:00 +3°C° 0 mm 4 mps 742 mmHg 83%
17:00 +1°C° 0 mm 4 mps 742 mmHg 85%
18:00 +2°C° 0 mm 3 mps 742 mmHg 86%
19:00 +2°C° 0 mm 3 mps 742 mmHg 87%
20:00 +1°C° 0 mm 3 mps 742 mmHg 88%
21:00 +1°C° 0 mm 3 mps 742 mmHg 89%
22:00 +2°C° 0 mm 2 mps 742 mmHg 90%
23:00 +2°C° 0 mm 2 mps 741 mmHg 91%
Show more